Home > Weather > Görlitz > Past weeks

Flag for Germany Past Weather in Görlitz, Saxony, Germany — Yesterday and Last 2 Weeks

Now
77 °F

Warm.


Feels Like: 78 °F
Forecast: 58 / 82 °F
Wind: 2 mph from South

Location: Liberec

Current Time: Aug 25, 2016 at 7:07:59 PM

Latest Report: Aug 25, 2016 at 6:00 PM


Visibility: 13 mi

Pressure: 30.13 "Hg

Humidity: 40%

Dew Point: 51 °F

Location of GörlitzLocation

Past Weather in Görlitz — Graph

°F

Görlitz Temperature Yesterday

Maximum temperature yesterday: 76 °F (at 4:00 PM)
Minimum temperature yesterday: 51 °F (at 5:00 AM)
Average temperature yesterday: 64 °F

High & Low Weather Summary for the Past Weeks

 TemperatureHumidityPressure
High79 °F (Aug 25, 4:00 PM)99% (Aug 18, 5:00 AM)30.38 "Hg (Aug 18, 5:00 AM)
Low41 °F (Aug 18, 3:00 AM)27% (Aug 19, 4:00 PM)29.78 "Hg (Aug 18, 5:00 PM)
Average59 °F74%30.12 "Hg
* Reported Aug 10 5:00 PM — Aug 25 5:00 PM, Görlitz, Weather by CustomWeather, © 2016

Note: Actual official high and low records may vary slightly from our data, if they occured in-between our weather recording intervals... More about our weather records

Advertising

Görlitz Weather History for the Previous 24 Hours

Scroll right to see more
 ConditionsComfort  
Time TempWeatherWind HumidityBarometerVisibility
5:00 PM
Thu, Aug 25
78 °FSunny.3 mph38%30.14 "Hg31 mi
4:00 PM79 °FPassing clouds.2 mph36%30.14 "Hg31 mi
3:00 PM78 °FPassing clouds.3 mph39%30.16 "Hg31 mi
2:00 PM77 °FPassing clouds.3 mph39%30.17 "Hg31 mi
1:00 PM75 °FSunny.3 mph44%30.18 "Hg28 mi
12:00 PM74 °FSunny.2 mph44%30.21 "Hg28 mi
11:00 AM71 °FSunny.3 mph47%30.23 "Hg28 mi
10:00 AM70 °FSunny.3 mph53%30.23 "Hg25 mi
9:00 AM67 °FSunny.2 mph58%30.23 "Hg25 mi
8:00 AM64 °FSunny.2 mph65%30.24 "Hg22 mi
7:00 AM60 °FCool.2 mph73%30.26 "Hg12 mi
6:00 AM59 °FCool.2 mph81%30.26 "Hg12 mi
5:00 AM61 °FCool.2 mph77%30.25 "Hg12 mi
3:00 AM58 °FCool.2 mph88%30.27 "Hg12 mi
2:00 AM59 °FCool.2 mph87%30.27 "Hg12 mi
1:00 AM58 °FCool.2 mph95%30.28 "Hg12 mi
12:00 AM57 °FCool.1 mph94%30.29 "Hg12 mi
11:00 PM
Wed, Aug 24
55 °FCool.1 mph90%30.29 "Hg12 mi
10:00 PM59 °FClear.1 mph87%30.28 "Hg19 mi
9:00 PM62 °FClear.1 mph83%30.27 "Hg22 mi
8:00 PM64 °FPassing clouds.2 mph74%30.26 "Hg22 mi
7:00 PM71 °FMild.2 mph56%30.24 "Hg12 mi
Weather by CustomWeather, © 2016

See weather overviewHow to use our weather pages